CW6037 Weather Reports


time (UTC)temp
C
wind
direction
speed
KPH
gust
KPH
rain 1hr
cm
rain 24hr
cm
rain mn
cm
humidity
%
barometer
mb
20260506134742 15 200 1.6 9.7 0.15 0.18 0.18 92 1007.8
20260506134023 15 227 1.6 9.7 0.18 0.18 0.18 91 1007.7
20260506133522 15 242 0.0 4.8 0.15 0.15 0.15 91 1007.7
20260506133024 15 196 1.6 4.8 0.15 0.15 0.15 91 1007.8
20260506133006 15 144 1.6 6.4 0.13 0.13 0.13 90 1008.0
20260506132019 15 129 3.2 6.4 0.10 0.10 0.10 89 1008.0
20260506131740 15 236 3.2 9.7 0.10 0.10 0.10 89 1008.1
20260506131017 15 224 3.2 9.7 0.08 0.08 0.08 88 1008.2
20260506130519 15 186 3.2 8.0 0.05 0.05 0.05 88 1008.2
20260506130015 15 225 3.2 9.7 0.05 0.05 0.05 87 1008.1
20260506125515 15 285 1.6 9.7 0.03 0.03 0.03 87 1008.1
20260506125015 15 240 1.6 9.7 0.03 0.03 0.03 87 1007.9
20260506124515 15 258 1.6 9.7 0.03 0.03 0.03 87 1007.8
20260506124015 15 250 1.6 4.8 0.00 0.00 0.00 87 1007.5
20260506123515 15 169 1.6 4.8 0.00 0.00 0.00 88 1007.3
20260506122957 13 260 1.6 6.4 0.00 0.00 0.00 89 1007.2
20260506122011 13 51 1.6 4.8 0.00 0.00 0.00 89 1007.4
20260506121828 13 277 0.0 3.2 0.00 0.00 0.00 89 1007.4
20260506121752 13 277 0.0 0.0 0.00 0.00 0.00 89 1007.5
20260506120507 12 277 0.0 0.0 0.00 0.00 0.00 90 1007.5
20260506120233 12 277 0.0 0.0 0.00 0.00 0.00 90 1007.6
20260506115506 12 277 0.0 0.0 0.00 0.00 0.00 90 1007.6
20260506115008 12 277 0.0 0.0 0.00 0.00 0.00 90 1007.4
20260506114505 12 277 0.0 0.0 0.00 0.00 0.00 90 1007.5
20260506114457 12 277 0.0 0.0 0.00 0.00 0.00 90 1007.6
20260506113505 12 277 0.0 0.0 0.00 0.00 0.00 90 1007.5
20260506113008 12 277 0.0 0.0 0.00 0.00 0.00 90 1007.5
20260506112951 12 277 0.0 0.0 0.00 0.00 0.00 90 1007.5
20260506112004 12 277 0.0 0.0 0.00 0.00 0.00 90 1007.5
20260506111458 12 277 0.0 0.0 0.00 0.00 0.00 90 1007.5
20260506111001 12 277 0.0 0.0 0.00 0.00 0.00 90 1007.5
20260506110501 12 277 0.0 0.0 0.00 0.00 0.00 90 1007.4
20260506110227 12 277 0.0 0.0 0.00 0.00 0.00 90 1007.4
20260506105501 12 277 0.0 0.0 0.00 0.00 0.00 90 1007.3
20260506104958 12 277 0.0 0.0 0.00 0.00 0.00 90 1007.2
20260506104455 12 277 0.0 0.0 0.00 0.00 0.00 90 1007.2
20260506103955 12 277 0.0 0.0 0.00 0.00 0.00 90 1006.8
20260506103456 12 277 0.0 0.0 0.00 0.00 0.00 90 1006.8
20260506103441 12 277 0.0 0.0 0.00 0.00 0.00 90 1006.9
20260506102452 12 277 0.0 0.0 0.00 0.00 0.00 90 1006.9
20260506101953 12 277 0.0 0.0 0.00 0.00 0.00 90 1007.0
20260506101455 12 277 0.0 0.0 0.00 0.00 0.00 90 1006.9
20260506100952 11 277 0.0 0.0 0.00 0.00 0.00 90 1006.8
20260506100453 11 277 0.0 0.0 0.00 0.00 0.00 90 1006.8
20260506095952 11 277 0.0 0.0 0.00 0.00 0.00 90 1007.0
20260506095453 11 277 0.0 0.0 0.00 0.00 0.00 90 1007.1
20260506095221 11 277 0.0 0.0 0.00 0.00 0.00 90 1007.1
20260506094720 11 277 0.0 0.0 0.00 0.00 0.00 90 1007.1
20260506094209 11 277 0.0 1.6 0.00 0.00 0.00 90 1007.0
20260506093451 11 277 0.0 1.6 0.00 0.00 0.00 90 1007.0
20260506092951 11 277 0.0 0.0 0.00 0.00 0.00 90 1007.0
20260506092449 11 277 0.0 1.6 0.00 0.00 0.00 89 1006.9
20260506091950 11 277 0.0 1.6 0.00 0.00 0.00 90 1006.9
20260506091448 11 277 0.0 1.6 0.00 0.00 0.00 90 1007.0
20260506090948 11 277 0.0 1.6 0.00 0.00 0.00 90 1007.1
20260506090448 11 277 0.0 1.6 0.00 0.00 0.00 90 1007.2
20260506085949 11 277 0.0 1.6 0.00 0.00 0.00 90 1007.1
20260506085450 11 277 0.0 1.6 0.00 0.00 0.00 90 1007.3
20260506085207 11 277 0.0 0.0 0.00 0.00 0.00 89 1007.2
20260506084448 11 277 0.0 0.0 0.00 0.00 0.00 90 1007.3
20260506083948 11 277 0.0 0.0 0.00 0.00 0.00 90 1007.5
20260506083715 11 277 0.0 1.6 0.00 0.00 0.00 89 1007.4
20260506082950 11 277 0.0 3.2 0.00 0.00 0.00 89 1007.4
20260506082925 11 277 1.6 3.2 0.00 0.00 0.00 89 1007.4
20260506081945 11 277 0.0 3.2 0.00 0.00 0.00 90 1007.3
20260506081442 11 277 0.0 0.0 0.00 0.00 0.00 90 1007.2
20260506080941 11 277 0.0 1.6 0.00 0.00 0.00 90 1007.1
20260506080440 11 277 0.0 1.6 0.00 0.00 0.00 90 1007.2
20260506073430 11 277 0.0 0.0 0.00 0.00 0.00 90 1007.3
20260506072929 11 277 0.0 0.0 0.00 0.00 0.00 90 1007.4
20260506072647 11 277 0.0 0.0 0.00 0.00 0.00 90 1007.5
20260506071922 11 277 0.0 0.0 0.00 0.00 0.00 90 1007.5
20260506071420 11 277 0.0 1.6 0.00 0.00 0.00 90 1007.6
20260506071145 11 277 0.0 1.6 0.00 0.00 0.00 90 1007.5
20260506070641 11 277 0.0 1.6 0.00 0.00 0.00 90 1007.4
20260506061904 11 277 0.0 3.2 0.00 0.00 0.00 89 1007.7
20260506061415 11 277 0.0 1.6 0.00 0.00 0.00 89 1007.9
20260506061404 11 277 0.0 3.2 0.00 0.00 0.00 89 1007.8
20260506060403 11 277 0.0 1.6 0.00 0.00 0.00 89 1007.8
20260506051354 11 277 0.0 1.6 0.00 0.00 0.00 87 1008.2
20260506050855 11 277 0.0 1.6 0.00 0.00 0.00 87 1008.2
20260506050352 12 277 0.0 0.0 0.00 0.00 0.00 86 1008.2
20260506044846 12 277 0.0 0.0 0.00 0.00 0.00 86 1008.2
20260506044340 12 277 0.0 1.6 0.00 0.00 0.00 85 1008.2
20260506043842 12 277 0.0 1.6 0.00 0.00 0.00 85 1008.2
20260506043340 12 277 0.0 1.6 0.00 0.00 0.00 85 1008.3
20260506042838 12 277 0.0 1.6 0.00 0.00 0.00 84 1008.3
20260506042338 12 277 0.0 1.6 0.00 0.00 0.00 84 1008.4
20260506041834 13 277 0.0 1.6 0.00 0.00 0.00 84 1008.5
20260506041552 13 277 0.0 0.0 0.00 0.00 0.00 84 1008.5
20260506040831 13 277 0.0 0.0 0.00 0.00 0.00 82 1008.3
20260506040822 13 277 0.0 1.6 0.00 0.00 0.00 82 1008.5
20260506035829 13 277 0.0 1.6 0.00 0.00 0.00 82 1008.5
20260506035542 13 277 0.0 0.0 0.00 0.00 0.00 81 1008.5
20260506034825 13 277 0.0 0.0 0.00 0.00 0.00 81 1008.5
20260506034326 13 277 0.0 1.6 0.00 0.00 0.00 81 1008.5
20260506033823 14 277 0.0 1.6 0.00 0.00 0.00 82 1008.5
20260506033320 14 277 0.0 0.0 0.00 0.00 0.00 80 1008.4
20260506032819 14 277 0.0 0.0 0.00 0.00 0.00 80 1008.4
20260506032319 15 277 0.0 0.0 0.00 0.00 0.00 80 1008.4
20260506031817 15 277 0.0 1.6 0.00 0.00 0.00 80 1008.4
20260506031315 15 277 0.0 1.6 0.00 0.00 0.00 79 1008.3
20260506030813 15 277 0.0 0.0 0.00 0.00 0.00 78 1008.4
20260506030311 15 277 0.0 0.0 0.00 0.00 0.00 77 1008.3
20260506025809 15 277 0.0 0.0 0.00 0.00 0.00 76 1008.3
20260506025309 16 277 0.0 3.2 0.00 0.00 0.00 76 1008.3
20260506024808 16 277 0.0 3.2 0.00 0.00 0.00 74 1008.3
20260506024309 16 277 0.0 1.6 0.00 0.00 0.00 75 1008.2
20260506023808 16 277 0.0 1.6 0.00 0.00 0.00 74 1008.3
20260506023308 16 277 0.0 1.6 0.00 0.00 0.00 73 1008.3
20260506023032 16 277 0.0 1.6 0.00 0.00 0.00 73 1008.3
20260506022308 17 277 0.0 1.6 0.00 0.00 0.00 74 1008.4
20260506021809 17 277 0.0 3.2 0.00 0.00 0.00 74 1008.4
20260506021303 17 277 1.6 3.2 0.00 0.00 0.00 74 1008.4
20260506020803 17 277 1.6 3.2 0.00 0.00 0.00 73 1008.4
20260506020303 17 277 0.0 1.6 0.00 0.00 0.00 71 1008.4
20260506015803 17 277 0.0 1.6 0.00 0.00 0.00 70 1008.2
20260506015305 18 277 0.0 1.6 0.00 0.00 0.00 72 1008.3
20260506014804 18 277 0.0 1.6 0.00 0.00 0.00 72 1008.3
20260506014303 18 277 0.0 3.2 0.00 0.00 0.00 71 1008.3
20260506014025 18 277 1.6 3.2 0.00 0.00 0.00 66 1008.2
20260506013302 18 277 1.6 3.2 0.00 0.00 0.00 65 1008.2
20260506013252 18 277 0.0 3.2 0.00 0.00 0.00 66 1008.0
20260506012903 18 277 1.6 3.2 0.00 0.00 0.00 66 1008.1
20260506012025 18 277 0.0 1.6 0.00 0.00 0.00 68 1007.9
20260506011302 19 277 0.0 1.6 0.00 0.00 0.00 67 1007.9
20260506011025 19 277 0.0 1.6 0.00 0.00 0.00 65 1007.7
20260506010303 19 277 0.0 1.6 0.00 0.00 0.00 66 1007.6
20260506005800 20 277 0.0 1.6 0.00 0.00 0.00 67 1007.5
20260506005525 20 277 0.0 1.6 0.00 0.00 0.00 66 1007.5
20260506004801 20 277 0.0 3.2 0.00 0.00 0.00 65 1007.4
20260506004303 20 277 1.6 3.2 0.00 0.00 0.00 65 1007.3
20260506003803 20 277 1.6 3.2 0.00 0.00 0.00 65 1007.4
20260506003300 20 277 1.6 3.2 0.00 0.00 0.00 64 1007.5
20260506002801 20 277 0.0 3.2 0.00 0.00 0.00 64 1007.4
20260506002301 20 277 0.0 1.6 0.00 0.00 0.00 63 1007.4
20260506001802 21 277 0.0 3.2 0.00 0.00 0.00 62 1007.4
20260506001301 21 277 0.0 3.2 0.00 0.00 0.00 59 1007.3
20260506000801 21 277 0.0 1.6 0.00 0.00 0.00 60 1007.3
20260506000256 21 277 0.0 3.2 0.00 0.00 0.00 59 1007.3
20260505235756 21 277 0.0 3.2 0.00 0.00 0.00 59 1007.2
20260505235256 21 277 0.0 3.2 0.00 0.00 0.00 60 1007.3
20260505234756 21 277 0.0 1.6 0.00 0.00 0.00 58 1007.2
20260505234255 21 277 0.0 1.6 0.00 0.00 0.00 59 1007.2
20260505233752 21 277 0.0 3.2 0.00 0.00 0.00 58 1007.2
20260505233252 21 277 0.0 3.2 0.00 0.00 0.00 58 1007.2
20260505232752 21 277 0.0 3.2 0.00 0.00 0.00 56 1007.1
20260505232253 21 277 1.6 3.2 0.00 0.00 0.00 59 1007.1
20260505231752 22 277 1.6 3.2 0.00 0.00 0.00 58 1007.2
20260505231516 22 278 0.0 3.2 0.00 0.00 0.00 59 1007.1
20260505230750 22 277 0.0 1.6 0.00 0.00 0.00 56 1007.1
20260505230250 22 277 0.0 1.6 0.00 0.00 0.00 56 1007.0
20260505225750 22 278 1.6 4.8 0.00 0.00 0.00 53 1006.9
20260505225242 22 278 1.6 4.8 0.00 0.00 0.00 53 1006.9
20260505225000 22 277 1.6 6.4 0.00 0.00 0.00 52 1006.8
20260505224236 22 277 1.6 6.4 0.00 0.00 0.00 52 1006.7
20260505223736 23 232 0.0 3.2 0.00 0.00 0.00 52 1006.7
20260505223236 23 232 1.6 3.2 0.00 0.00 0.00 52 1006.6
20260505222735 23 232 1.6 11.3 0.00 0.00 0.00 51 1006.6
20260505222232 23 222 1.6 11.3 0.00 0.00 0.00 50 1006.6
20260505221733 23 150 3.2 11.3 0.00 0.00 0.00 51 1006.8
20260505221235 23 211 3.2 11.3 0.00 0.00 0.00 51 1006.7
20260505220732 23 289 3.2 6.4 0.00 0.00 0.00 51 1006.7
20260505220232 23 211 3.2 8.0 0.00 0.00 0.00 50 1006.7
20260505215950 23 212 3.2 8.0 0.00 0.00 0.00 49 1006.7
20260505215229 23 290 3.2 12.9 0.00 0.00 0.00 49 1006.7
20260505214728 23 252 3.2 12.9 0.00 0.00 0.00 47 1006.6
20260505214455 23 190 4.8 11.3 0.00 0.00 0.00 47 1006.6
20260505213955 24 157 4.8 11.3 0.00 0.00 0.00 46 1006.6
20260505213228 24 236 3.2 12.9 0.00 0.00 0.00 46 1006.4
20260505212945 25 246 4.8 19.3 0.00 0.00 0.00 45 1006.6
20260505212216 25 192 6.4 19.3 0.00 0.00 0.00 45 1006.4
20260505211714 25 114 6.4 16.1 0.00 0.00 0.00 45 1006.6
20260505211215 25 209 9.7 33.8 0.00 0.00 0.00 44 1006.6
20260505210714 25 193 11.3 33.8 0.00 0.00 0.00 44 1006.6
20260505210214 25 257 11.3 35.4 0.00 0.00 0.00 43 1006.7
20260505205714 25 281 11.3 35.4 0.00 0.00 0.00 41 1006.3
20260505205214 25 146 8.0 29.0 0.00 0.00 0.00 40 1006.0
20260505204714 25 255 8.0 27.4 0.00 0.00 0.00 40 1005.8
20260505204214 25 265 8.0 19.3 0.00 0.00 0.00 39 1005.8
20260505203717 25 256 9.7 25.7 0.00 0.00 0.00 39 1005.9
20260505203434 25 245 9.7 30.6 0.00 0.00 0.00 38 1005.9
20260505202714 25 237 11.3 33.8 0.00 0.00 0.00 38 1005.8
20260505202214 25 200 11.3 33.8 0.00 0.00 0.00 38 1005.8
20260505201714 25 153 9.7 25.7 0.00 0.00 0.00 37 1005.9
20260505201216 25 182 8.0 27.4 0.00 0.00 0.00 37 1005.9
20260505200714 26 272 8.0 27.4 0.00 0.00 0.00 37 1005.8
20260505200212 26 205 11.3 29.0 0.00 0.00 0.00 36 1005.7
20260505195714 26 196 12.9 35.4 0.00 0.00 0.00 36 1005.9
20260505195212 27 247 12.9 35.4 0.00 0.00 0.00 35 1005.8
20260505194710 27 267 11.3 37.0 0.00 0.00 0.00 35 1005.8
20260505194207 27 234 12.9 37.0 0.00 0.00 0.00 33 1005.9
20260505193930 26 274 12.9 32.2 0.00 0.00 0.00 36 1005.9
20260505193206 26 296 11.3 32.2 0.00 0.00 0.00 37 1005.9
20260505192709 26 288 9.7 27.4 0.00 0.00 0.00 37 1005.9
20260505192206 26 215 9.7 22.5 0.00 0.00 0.00 36 1006.0
20260505191707 26 234 11.3 32.2 0.00 0.00 0.00 36 1006.2
20260505191206 26 252 11.3 32.2 0.00 0.00 0.00 35 1006.2
20260505190705 26 281 11.3 30.6 0.00 0.00 0.00 35 1006.4
20260505190204 26 250 11.3 32.2 0.00 0.00 0.00 37 1006.3
20260505185707 26 259 11.3 32.2 0.00 0.00 0.00 36 1006.4
20260505185202 26 279 11.3 32.2 0.00 0.00 0.00 36 1006.8
20260505184702 27 293 11.3 32.2 0.00 0.00 0.00 36 1006.7
20260505184202 26 256 11.3 33.8 0.00 0.00 0.00 38 1006.8
20260505183702 26 285 14.5 43.5 0.00 0.00 0.00 37 1006.8
20260505183204 27 276 12.9 43.5 0.00 0.00 0.00 37 1006.9
20260505182702 27 234 11.3 29.0 0.00 0.00 0.00 38 1006.8
20260505182204 26 286 14.5 29.0 0.00 0.00 0.00 38 1006.9
20260505181702 26 279 14.5 38.6 0.00 0.00 0.00 37 1007.2
20260505181202 26 259 12.9 38.6 0.00 0.00 0.00 40 1007.2
20260505180702 26 306 11.3 27.4 0.00 0.00 0.00 40 1007.2
20260505180424 26 326 11.3 32.2 0.00 0.00 0.00 41 1007.4
20260505175702 26 200 12.9 40.2 0.00 0.00 0.00 41 1007.4
20260505175202 26 250 12.9 40.2 0.00 0.00 0.00 40 1007.5
20260505174700 26 237 12.9 33.8 0.00 0.00 0.00 39 1007.8
20260505174423 26 242 8.0 33.8 0.00 0.00 0.00 38 1007.6
20260505173700 26 310 8.0 25.7 0.00 0.00 0.00 41 1007.5
20260505173158 26 169 9.7 25.7 0.00 0.00 0.00 39 1007.3
20260505172657 26 188 9.7 22.5 0.00 0.00 0.00 42 1007.3
20260505172158 26 252 9.7 20.9 0.00 0.00 0.00 43 1007.5
20260505171655 26 175 11.3 25.7 0.00 0.00 0.00 44 1007.4
20260505171156 26 263 9.7 32.2 0.00 0.00 0.00 43 1007.3
20260505170656 26 257 9.7 32.2 0.00 0.00 0.00 45 1007.4
20260505170157 26 267 9.7 32.2 0.00 0.00 0.00 44 1007.6
20260505165655 26 196 9.7 27.4 0.00 0.00 0.00 44 1007.4
20260505165154 25 203 9.7 24.1 0.00 0.00 0.00 46 1007.5
20260505164655 26 123 8.0 24.1 0.00 0.00 0.00 43 1007.6
20260505164154 25 196 8.0 24.1 0.00 0.00 0.00 46 1007.7
20260505163656 25 151 9.7 22.5 0.00 0.00 0.00 44 1007.8
20260505163425 25 227 9.7 24.1 0.00 0.00 0.00 44 1007.8
20260505162653 25 271 9.7 24.1 0.00 0.00 0.00 46 1007.8
20260505162416 25 173 8.0 32.2 0.00 0.00 0.00 46 1007.9
20260505161914 25 201 8.0 32.2 0.00 0.00 0.00 45 1007.9
20260505161156 25 323 9.7 27.4 0.00 0.00 0.00 46 1008.0
20260505160654 25 190 9.7 27.4 0.00 0.00 0.00 45 1008.1
20260505160433 25 16 9.7 22.5 0.00 0.00 0.00 48 1008.1
20260505153154 24 239 8.0 25.7 0.00 0.00 0.00 49 1008.5
20260505152653 24 90 11.3 29.0 0.00 0.00 0.00 50 1008.6
20260505152156 24 261 9.7 29.0 0.00 0.00 0.00 50 1008.7
20260505152130 23 280 11.3 29.0 0.00 0.00 0.00 48 1008.9
20260505151747 23 227 11.3 29.0 0.00 0.00 0.00 50 1008.7
20260505150654 23 215 9.7 27.4 0.00 0.00 0.00 50 1008.8
20260505150152 23 143 8.0 22.5 0.00 0.00 0.00 54 1008.8
20260505140635 22 208 6.4 17.7 0.00 0.00 0.00 53 1008.8
20260505140135 22 224 6.4 19.3 0.00 0.00 0.00 56 1008.8